Theta_e
301 300 301 301 301 302 301 302 297 300 300 304 307 307 309 311 314 313 310 308 308 306 307 305 302 300 300 298 298 296 294 294 294 294 293 291 291 290 290 289 289 289 288 288
290 299 298 297 299 301 302 302 301 301 301 308 308 308 307 309 311 310 309 308 307 306 306 304 300 296 298 297 296 296 294 293 293 293 291 291 290 289 288 288 288 288 288 287
294 298 297 294 299 301 301 303 302 297 303 306 304 304 306 308 309 309 310 309 307 306 306 304 298 298 297 297 296 295 294 293 292 291 290 290 289 288 287 288 288 287 287 287
296 296 286 298 302 301 299 300 302 301 302 304 304 306 307 309 309 310 310 310 308 307 307 303 300 298 299 298 295 294 293 292 291 290 289 289 288 287 287 288 287 287 287 286
293 292 295 298 299 299 297 297 302 301 303 305 304 305 307 308 309 311 312 311 310 309 308 304 300 300 299 296 295 293 292 291 291 290 289 288 287 287 287 286 286 286 286 285
294 289 286 296 301 304 302 294 302 303 303 303 303 303 306 307 307 309 310 310 309 309 308 305 303 300 298 296 294 293 292 292 291 290 289 288 287 286 286 286 285 285 284 285
293 291 295 303 302 303 291 296 304 304 305 304 304 307 309 306 307 309 309 309 310 309 306 305 303 300 297 296 294 294 293 292 290 290 288 288 286 286 285 285 284 284 284 285
296 290 288 305 302 297 303 307 305 306 306 307 308 308 307 306 307 307 306 306 306 306 305 305 303 299 297 295 296 294 292 290 289 289 287 285 286 285 284 284 283 283 283 284
298 297 305 306 306 308 308 306 307 308 308 308 307 307 307 306 307 307 307 306 305 305 304 303 301 298 297 297 295 292 290 289 289 287 286 285 285 284 283 283 283 282 282 282
299 302 303 306 307 308 309 308 309 309 309 309 307 309 308 308 307 307 306 305 304 303 301 300 298 297 298 297 294 291 289 289 287 286 286 285 284 283 283 283 283 282 281 281
300 302 303 304 306 307 308 308 308 310 309 309 309 308 309 308 308 307 306 305 304 302 301 300 297 296 297 294 292 289 289 288 286 286 284 285 283 283 283 283 282 281 281 281
297 303 303 303 307 308 306 306 307 308 308 310 309 308 310 309 309 308 307 306 303 302 301 300 297 294 293 292 291 289 287 286 286 286 285 284 283 282 279 278 277 277 277 278
302 306 306 307 307 308 306 307 307 308 309 309 311 310 310 309 309 306 307 306 303 302 301 300 297 294 294 290 290 288 286 286 287 285 285 283 282 281 281 280 277 277 276 276
306 306 303 305 303 307 307 307 307 308 308 308 309 309 309 308 308 306 306 307 306 303 301 299 296 288 293 288 289 287 287 284 286 285 285 283 282 282 282 280 280 280 278 276
304 305 304 306 306 306 307 307 306 305 307 307 308 307 306 305 305 305 306 306 304 301 299 297 292 291 291 287 287 286 286 286 285 285 283 282 281 281 281 280 279 279 279 278
301 301 302 301 302 302 304 305 304 304 304 305 305 305 305 304 304 304 304 303 299 297 297 292 292 291 286 285 285 285 286 284 283 282 281 280 281 280 280 279 279 278 278 278
297 296 298 298 299 300 302 303 302 301 301 302 303 304 304 302 302 301 302 302 299 296 296 292 288 284 284 285 286 285 285 283 281 281 280 281 281 280 280 279 278 278 278 279
300 300 300 300 299 299 300 300 301 301 300 301 303 303 297 295 297 299 300 299 294 292 293 291 287 284 284 284 285 286 285 282 280 280 280 280 280 280 280 278 278 278 278 278
299 299 300 299 300 300 300 300 300 301 301 302 298 293 294 293 297 298 298 289 286 286 287 285 282 283 283 283 284 285 284 282 281 280 280 279 280 279 279 279 278 278 278 277
298 299 299 299 299 299 299 300 300 300 300 299 289 288 289 289 287 287 287 287 290 292 286 284 283 283 283 282 283 285 282 282 281 280 280 280 280 280 279 278 277 277 278 278
297 297 298 298 297 299 298 294 289 289 287 286 286 287 287 287 287 286 285 289 288 285 286 283 284 284 284 282 283 283 283 282 281 280 280 279 279 279 279 279 278 278 278 278
298 297 295 291 294 294 292 293 295 286 286 286 286 286 285 287 284 285 285 290 287 283 285 285 285 283 283 281 284 283 282 281 281 281 280 280 280 279 279 279 278 278 278 278
298 297 296 294 291 296 294 293 286 286 285 286 286 286 287 290 289 287 286 286 286 283 285 286 284 282 280 284 283 283 281 280 280 280 280 280 280 279 279 278 278 278 278 277
297 297 297 296 295 294 293 293 289 287 285 284 285 283 286 287 287 287 287 284 283 282 287 284 281 278 280 283 282 282 281 281 280 280 280 278 280 279 278 277 277 278 277 277
296 296 296 295 294 293 294 291 288 287 287 287 286 285 285 287 288 287 287 285 281 284 284 279 278 278 283 282 282 281 281 281 281 280 279 279 279 278 278 278 278 278 278 277
297 297 298 296 295 295 293 290 290 291 288 287 287 286 287 286 286 286 284 282 282 283 283 280 279 282 282 282 281 280 280 280 279 278 278 278 278 278 278 278 278 278 278 278
297 289 295 294 292 292 291 290 290 290 286 288 288 287 286 286 285 283 282 282 282 283 282 281 280 281 282 281 280 280 280 280 279 279 279 279 279 279 279 279 279 279 278 277
Wind_Speed
5 4 2 2 3 7 11 10 7 12 14 14 13 10 12 12 9 13 18 19 18 17 15 15 14 11 11 10 11 10 10 9 8 7 6 5 5 3 3 4 4 4 4 4
2 2 1 6 6 9 10 11 13 17 19 15 10 6 9 7 8 14 17 19 18 17 17 17 16 13 14 13 11 11 10 9 8 7 7 6 5 4 5 5 4 5 5 5
4 0 5 11 15 17 13 10 10 13 13 11 12 11 10 10 10 14 16 18 18 19 17 16 15 16 14 14 12 12 10 9 9 8 7 6 5 5 6 5 5 5 5 6
2 2 6 2 3 1 4 7 7 11 13 13 13 12 12 11 12 12 13 15 17 16 17 15 17 13 14 13 13 12 11 10 9 8 7 6 6 6 5 5 6 5 5 6
4 7 7 11 7 4 4 4 3 5 6 7 6 8 10 4 8 9 10 11 13 15 15 16 17 16 15 15 13 13 12 11 10 9 7 7 7 6 5 6 6 5 5 6
4 4 5 3 9 5 3 9 7 3 3 5 4 4 4 6 3 5 7 10 12 15 15 17 16 16 16 15 14 14 13 11 10 9 7 7 6 6 5 6 6 4 6 6
7 5 6 7 9 5 4 1 6 3 2 2 4 4 6 3 4 6 8 10 11 13 14 15 16 16 16 15 15 13 12 11 10 9 8 6 6 5 5 6 6 6 6 6
8 5 8 11 12 8 0 3 4 4 2 5 7 8 7 5 8 9 10 11 13 12 13 14 16 16 17 16 13 13 12 12 11 9 6 5 7 5 6 6 6 6 6 5
9 6 5 14 7 10 4 5 6 7 7 7 9 9 9 9 10 11 12 11 11 12 13 13 15 16 16 15 14 13 13 12 11 9 7 6 6 6 5 5 5 5 5 5
4 9 7 7 7 7 9 10 13 15 12 10 12 12 11 11 11 12 11 12 12 13 13 14 14 16 15 14 14 15 14 12 10 9 8 7 5 4 5 5 5 5 5 5
10 8 6 10 11 13 16 14 14 15 16 15 14 14 14 13 14 13 12 11 11 13 13 14 15 16 15 15 16 15 13 11 10 8 8 7 6 5 5 5 3 5 4 5
7 9 11 13 12 9 10 13 15 14 15 14 14 15 14 12 12 12 12 10 11 13 14 14 16 15 16 17 16 15 13 10 8 7 7 6 6 5 7 5 4 8 10 8
12 10 10 11 13 17 18 16 17 14 13 12 12 11 12 11 11 10 10 11 13 15 14 14 15 16 18 15 18 16 13 11 8 7 7 7 6 6 6 8 10 10 10 10
13 11 13 16 15 17 15 16 13 12 11 10 11 8 9 10 10 8 12 13 13 12 13 14 16 15 17 15 17 16 14 9 9 8 7 6 6 6 5 5 5 5 12 10
16 15 17 17 17 18 18 17 17 16 15 15 12 11 11 13 12 12 10 9 9 10 12 14 16 16 16 13 14 14 11 9 9 7 7 7 6 6 6 6 6 5 5 7
13 13 16 18 20 21 20 18 17 16 15 16 15 15 13 12 11 10 9 7 9 11 13 12 15 15 14 15 15 12 11 8 9 8 7 7 7 6 6 6 5 6 5 5
15 15 15 18 18 18 18 16 13 14 11 11 13 14 12 11 11 11 12 10 10 10 10 13 13 14 16 16 18 10 9 9 10 8 8 7 7 7 6 5 6 6 6 5
10 12 13 15 15 16 17 17 15 16 16 17 16 9 7 8 14 14 11 8 8 7 11 10 11 13 13 12 12 11 10 9 9 8 7 7 7 6 6 6 6 6 6 5
6 9 11 12 13 14 15 16 16 15 12 10 5 9 9 9 12 11 7 5 6 8 6 9 14 14 14 13 12 9 9 10 9 8 7 7 6 6 6 6 7 7 6 6
5 6 8 11 11 10 12 11 12 11 11 9 4 6 9 8 4 5 5 9 8 4 12 14 17 15 15 16 14 10 10 10 9 8 7 7 6 6 7 8 7 7 6 7
2 5 7 9 12 11 8 8 3 7 2 2 4 7 5 4 3 5 5 7 6 8 11 15 13 11 11 13 12 10 9 9 8 7 7 7 6 7 7 7 7 7 7 7
5 7 5 4 8 8 5 7 5 2 4 3 4 4 4 5 3 4 3 5 5 9 8 10 10 14 12 15 10 9 9 9 8 7 6 7 7 7 7 6 7 6 7 7
7 7 8 6 5 6 4 5 2 3 4 3 4 4 4 4 3 3 4 5 5 9 8 9 11 14 18 9 9 9 9 9 8 7 7 6 6 6 6 6 6 6 7 7
7 8 9 7 4 4 6 4 4 3 2 3 1 1 3 2 1 2 1 6 8 9 6 9 12 17 16 8 8 8 8 8 8 7 6 7 6 5 6 6 7 7 7 8
6 8 8 7 6 6 6 4 4 4 3 2 2 1 2 1 1 1 3 5 11 9 7 11 15 17 8 8 8 8 7 7 6 6 6 6 5 6 6 7 7 7 8 8
5 5 6 6 5 4 3 3 4 2 2 1 0 1 1 1 1 3 4 7 8 8 7 9 9 9 7 7 8 8 7 5 5 5 5 5 6 6 6 7 8 8 8 8
4 3 5 5 5 5 4 4 4 4 4 2 1 3 3 3 3 5 7 7 7 7 7 8 8 9 7 7 7 6 5 5 5 5 5 6 6 6 7 7 8 8 8 8
Wind_Direction
68 65 15 315 226 206 226 252 238 264 285 275 296 305 289 291 242 210 206 202 198 192 184 178 173 179 172 176 168 167 172 181 176 171 179 181 193 215 257 284 292 305 306 316
6 117 294 266 235 240 243 254 256 270 278 288 308 299 282 266 242 221 214 211 204 197 192 185 181 166 179 183 178 176 179 184 178 183 191 202 210 235 259 267 281 295 306 310
241 326 303 266 235 240 239 241 266 274 293 321 293 282 281 277 238 232 219 211 205 202 199 189 180 185 183 182 177 184 183 186 188 193 203 208 217 245 259 276 288 292 296 302
239 183 245 357 121 57 266 267 256 268 291 305 303 301 288 270 267 241 228 212 205 201 200 186 188 182 184 182 182 187 190 192 195 199 207 211 226 251 265 275 282 294 302 301
203 222 310 243 207 210 219 278 255 274 315 328 317 289 269 251 253 256 226 208 202 200 196 187 187 184 184 185 185 189 195 197 198 201 209 215 232 254 268 276 283 293 303 304
172 228 236 109 162 162 224 275 145 205 319 335 327 328 31 353 227 205 195 188 191 192 183 192 188 184 187 189 190 196 197 197 197 198 211 217 234 251 267 270 287 293 297 299
202 228 257 233 166 177 228 49 165 205 273 239 276 293 332 319 209 190 182 180 181 182 192 193 185 186 195 192 198 196 191 191 192 196 206 214 222 236 255 272 281 296 293 299
205 210 247 169 154 224 23 163 209 218 280 259 267 277 279 254 214 194 189 186 189 190 196 193 187 189 197 199 192 188 183 187 190 194 192 210 222 232 246 262 275 286 298 299
199 206 109 181 209 211 256 251 227 249 276 269 280 264 252 240 217 213 208 195 193 200 198 194 191 195 200 194 184 179 184 189 190 190 199 211 224 234 250 257 268 285 290 297
193 209 207 204 229 247 248 257 272 280 272 268 263 269 254 239 224 219 216 209 198 204 201 198 196 198 204 184 177 181 187 189 188 198 201 206 216 231 238 249 258 271 282 290
244 265 256 255 258 269 277 281 267 268 270 264 260 260 255 249 231 226 222 213 205 209 209 205 193 194 196 177 181 184 187 187 191 205 196 219 220 228 228 245 282 277 277 290
232 246 260 269 286 291 276 276 276 276 276 262 255 256 262 254 249 237 229 219 215 221 218 208 193 190 187 178 185 187 184 185 194 197 199 211 217 220 199 255 260 245 259 266
261 275 264 273 271 274 278 280 280 274 265 268 264 251 264 259 254 251 245 227 225 228 223 209 197 196 186 184 178 192 184 184 186 201 202 204 206 222 236 188 218 239 242 249
247 260 258 255 261 266 269 277 266 258 263 256 258 256 254 258 261 243 240 240 238 233 225 210 202 191 189 174 179 191 186 166 184 187 200 199 208 217 227 242 248 238 210 233
242 250 259 271 273 272 271 268 260 255 252 255 239 243 251 255 257 254 253 251 243 231 221 207 206 194 181 169 178 186 182 172 182 182 191 197 201 211 221 233 244 257 256 216
258 263 261 257 262 268 270 271 272 277 289 283 277 272 266 270 266 272 270 247 223 222 219 208 206 186 164 164 174 179 187 170 172 179 181 197 206 213 222 234 244 251 258 268
260 267 270 269 273 277 279 287 280 278 286 287 285 281 282 289 283 272 263 244 234 239 227 199 193 169 169 179 171 163 169 167 175 184 193 200 203 211 224 234 245 254 264 270
266 273 278 284 285 283 277 271 268 273 273 272 271 267 279 264 268 273 270 236 219 220 218 191 165 161 163 169 164 163 163 164 182 193 195 200 206 213 221 235 246 254 262 260
278 278 280 275 276 280 281 282 284 286 283 275 258 257 253 251 257 265 249 192 186 199 191 140 152 155 159 160 157 154 168 171 182 191 199 195 198 221 225 236 247 254 264 269
285 285 281 283 283 272 276 279 282 277 275 274 254 254 256 261 224 222 187 215 226 233 149 165 165 170 165 163 157 163 174 177 183 187 193 198 209 216 230 236 261 269 267 268
324 320 307 308 310 301 278 285 265 264 294 283 266 274 276 292 198 180 201 235 197 161 172 167 172 168 167 158 166 168 171 177 181 187 193 203 215 227 235 245 253 254 262 267
319 310 283 262 289 289 263 265 262 275 277 256 245 260 266 259 225 221 288 264 144 167 161 172 171 162 155 157 172 167 174 177 181 191 194 208 219 227 235 243 252 256 263 267
292 286 285 284 266 296 293 277 252 267 292 292 301 293 275 311 252 226 232 182 157 165 169 168 143 150 146 169 156 168 172 177 184 195 206 216 225 232 240 249 253 260 266 271
289 293 287 287 275 256 268 258 244 266 240 274 259 276 269 240 228 223 27 127 126 155 156 136 145 152 159 149 160 167 173 180 192 202 213 224 230 234 242 249 255 263 269 269
289 287 284 269 253 254 251 254 254 243 247 307 358 94 226 321 296 151 118 134 139 159 133 147 154 158 156 161 166 170 178 186 193 205 216 224 227 235 245 252 260 268 272 275
297 293 288 270 257 263 254 209 252 269 251 246 86 53 86 36 58 137 130 138 155 142 134 146 161 170 159 165 167 174 179 184 193 213 217 223 234 245 255 263 271 273 273 276
264 269 264 254 235 232 225 216 218 236 218 208 216 157 174 181 163 151 141 144 143 143 146 156 162 167 165 164 168 170 181 195 204 206 212 231 242 255 264 271 273 274 278 282